Time,TemperatureF,DewpointF,PressureIn,WindDirection,WindDirectionDegrees,WindSpeedMPH,WindSpeedGustMPH,Humidity,HourlyPrecipIn,Conditions,Clouds,dailyrainin,SoftwareType,DateUTC
2013-09-10 00:04:00,71.0,66.0,30.21,South,185,0.0,0.0,84,0.00,,,0.00,,2013-09-10 04:04:00,
2013-09-10 00:24:00,70.0,66.0,30.20,South,185,0.0,0.0,86,0.00,,,0.00,,2013-09-10 04:24:00,
2013-09-10 00:53:00,70.0,66.0,30.20,SE,136,0.0,1.0,86,0.00,,,0.00,,2013-09-10 04:53:00,
2013-09-10 01:13:00,70.0,66.0,30.20,SE,136,0.0,0.0,86,0.00,,,0.00,,2013-09-10 05:13:00,
2013-09-10 01:23:00,70.0,66.0,30.20,SE,136,0.0,0.0,86,0.00,,,0.00,,2013-09-10 05:23:00,
2013-09-10 01:34:00,70.0,66.0,30.20,SE,136,0.0,0.0,86,0.00,,,0.00,,2013-09-10 05:34:00,
2013-09-10 01:53:00,69.0,65.0,30.20,South,171,0.0,0.0,88,0.00,,,0.00,,2013-09-10 05:53:00,
2013-09-10 02:12:00,69.0,65.0,30.20,South,179,1.0,5.0,88,0.00,,,0.00,,2013-09-10 06:12:00,
2013-09-10 02:22:00,69.0,65.0,30.20,South,179,1.0,5.0,88,0.00,,,0.00,,2013-09-10 06:22:00,
2013-09-10 02:32:00,69.0,65.0,30.20,South,179,1.0,5.0,88,0.00,,,0.00,,2013-09-10 06:32:00,
2013-09-10 02:43:00,69.0,65.0,30.20,South,179,1.0,5.0,88,0.00,,,0.00,,2013-09-10 06:43:00,
2013-09-10 03:22:00,69.0,66.0,30.21,SSE,168,0.0,0.0,89,0.00,,,0.00,,2013-09-10 07:22:00,
2013-09-10 03:32:00,69.0,66.0,30.21,SSE,168,0.0,0.0,89,0.00,,,0.00,,2013-09-10 07:32:00,
2013-09-10 03:52:00,68.0,65.0,30.20,SSE,168,0.0,0.0,89,0.00,,,0.00,,2013-09-10 07:52:00,
2013-09-10 04:22:00,68.0,65.0,30.21,SSE,168,0.0,0.0,90,0.00,,,0.00,,2013-09-10 08:22:00,
2013-09-10 04:52:00,68.0,65.0,30.21,SSE,168,0.0,0.0,90,0.00,,,0.00,,2013-09-10 08:52:00,
2013-09-10 05:02:00,68.0,65.0,30.21,SSE,168,0.0,0.0,90,0.00,,,0.00,,2013-09-10 09:02:00,
2013-09-10 05:22:00,68.0,65.0,30.21,SSE,168,0.0,0.0,90,0.00,,,0.00,,2013-09-10 09:22:00,
2013-09-10 05:33:00,68.0,65.0,30.21,SSE,168,0.0,0.0,90,0.00,,,0.00,,2013-09-10 09:33:00,
2013-09-10 05:54:00,68.0,65.0,30.21,SSE,168,0.0,0.0,90,0.00,,,0.00,,2013-09-10 09:54:00,
2013-09-10 06:13:00,67.0,64.0,30.22,SSE,168,0.0,0.0,91,0.00,,,0.00,,2013-09-10 10:13:00,
2013-09-10 06:23:00,67.0,64.0,30.22,SSE,168,0.0,0.0,91,0.00,,,0.00,,2013-09-10 10:23:00,
2013-09-10 06:53:00,67.0,65.0,30.22,SSE,168,0.0,0.0,92,0.00,,,0.00,,2013-09-10 10:53:00,
2013-09-10 07:03:00,67.0,65.0,30.22,SSE,168,0.0,0.0,92,0.00,,,0.00,,2013-09-10 11:03:00,
2013-09-10 07:22:00,67.0,65.0,30.22,SSE,168,0.0,0.0,92,0.00,,,0.00,,2013-09-10 11:22:00,
2013-09-10 07:33:00,67.0,65.0,30.22,SSE,168,0.0,0.0,92,0.00,,,0.00,,2013-09-10 11:33:00,
2013-09-10 07:52:00,67.0,65.0,30.22,SSE,168,0.0,0.0,92,0.00,,,0.00,,2013-09-10 11:52:00,
2013-09-10 08:22:00,67.0,65.0,30.23,SSE,168,0.0,1.0,92,0.00,,,0.00,,2013-09-10 12:22:00,
2013-09-10 08:32:00,67.0,65.0,30.23,SSE,168,0.0,1.0,92,0.00,,,0.00,,2013-09-10 12:32:00,
2013-09-10 08:52:00,67.0,65.0,30.23,SSE,168,0.0,1.0,92,0.00,,,0.00,,2013-09-10 12:52:00,
2013-09-10 09:21:00,68.0,65.0,30.24,ENE,64,0.0,2.0,91,0.00,,,0.00,,2013-09-10 13:21:00,
2013-09-10 09:52:00,70.0,67.0,30.25,ESE,104,0.0,3.0,89,0.00,,,0.00,,2013-09-10 13:52:00,
2013-09-10 10:22:00,72.0,68.0,30.26,ENE,69,1.0,3.0,87,0.00,,,0.00,,2013-09-10 14:22:00,
2013-09-10 10:52:00,73.0,68.0,30.26,East,98,0.0,3.0,85,0.00,,,0.00,,2013-09-10 14:52:00,
2013-09-10 11:23:00,77.0,69.0,30.25,SE,145,1.0,5.0,77,0.00,,,0.00,,2013-09-10 15:23:00,
2013-09-10 11:54:00,78.0,69.0,30.25,SE,138,1.0,3.0,74,0.00,,,0.00,,2013-09-10 15:54:00,
2013-09-10 12:03:00,78.0,69.0,30.25,SE,138,1.0,3.0,74,0.00,,,0.00,,2013-09-10 16:03:00,
2013-09-10 12:23:00,82.0,69.0,30.25,ESE,106,0.0,3.0,64,0.00,,,0.00,,2013-09-10 16:23:00,
2013-09-10 12:33:00,82.0,69.0,30.25,ESE,106,0.0,3.0,64,0.00,,,0.00,,2013-09-10 16:33:00,
2013-09-10 12:53:00,84.0,69.0,30.24,ESE,109,3.0,6.0,60,0.00,,,0.00,,2013-09-10 16:53:00,
2013-09-10 13:23:00,86.0,69.0,30.24,NE,45,1.0,6.0,58,0.00,,,0.00,,2013-09-10 17:23:00,
2013-09-10 13:53:00,88.0,69.0,30.23,NE,49,1.0,3.0,53,0.00,,,0.00,,2013-09-10 17:53:00,
2013-09-10 14:22:00,89.0,68.0,30.22,ENE,68,1.0,5.0,51,0.00,,,0.00,,2013-09-10 18:22:00,
2013-09-10 14:52:00,90.0,68.0,30.22,East,90,0.0,5.0,49,0.00,,,0.00,,2013-09-10 18:52:00,
2013-09-10 15:12:00,90.0,68.0,30.21,South,182,6.0,9.0,48,0.00,,,0.00,,2013-09-10 19:12:00,
2013-09-10 15:22:00,90.0,68.0,30.21,South,182,6.0,9.0,48,0.00,,,0.00,,2013-09-10 19:22:00,
2013-09-10 15:52:00,81.0,72.0,30.21,East,90,2.0,5.0,73,0.12,,,0.12,,2013-09-10 19:52:00,
2013-09-10 16:02:00,81.0,72.0,30.21,East,90,2.0,5.0,73,0.12,,,0.12,,2013-09-10 20:02:00,
2013-09-10 16:22:00,78.0,71.0,30.21,SSW,199,2.0,5.0,78,0.15,,,0.15,,2013-09-10 20:22:00,
2013-09-10 16:32:00,78.0,71.0,30.21,SSW,199,2.0,5.0,78,0.15,,,0.15,,2013-09-10 20:32:00,
2013-09-10 16:52:00,78.0,71.0,30.20,SSW,206,4.0,7.0,80,0.03,,,0.15,,2013-09-10 20:52:00,
2013-09-10 17:12:00,79.0,72.0,30.19,SSW,196,5.0,7.0,78,0.00,,,0.15,,2013-09-10 21:12:00,
2013-09-10 17:23:00,79.0,72.0,30.19,SSW,196,5.0,7.0,78,0.00,,,0.15,,2013-09-10 21:23:00,
2013-09-10 17:54:00,81.0,72.0,30.19,South,183,5.0,8.0,74,0.00,,,0.15,,2013-09-10 21:54:00,
2013-09-10 18:24:00,80.0,71.0,30.18,SSW,203,3.0,9.0,75,0.00,,,0.15,,2013-09-10 22:24:00,
2013-09-10 18:55:00,80.0,71.0,30.18,South,180,6.0,8.0,73,0.00,,,0.15,,2013-09-10 22:55:00,
2013-09-10 19:03:00,80.0,71.0,30.18,South,180,6.0,8.0,73,0.00,,,0.15,,2013-09-10 23:03:00,
2013-09-10 19:13:00,80.0,71.0,30.18,South,180,6.0,8.0,73,0.00,,,0.15,,2013-09-10 23:13:00,
2013-09-10 19:53:00,77.0,69.0,30.18,South,190,3.0,6.0,77,0.00,,,0.15,,2013-09-10 23:53:00,
2013-09-10 20:22:00,77.0,69.0,30.19,South,187,3.0,6.0,77,0.00,,,0.15,,2013-09-11 00:22:00,
2013-09-10 20:52:00,76.0,69.0,30.21,SW,226,0.0,0.0,78,0.00,,,0.15,,2013-09-11 00:52:00,
2013-09-10 21:02:00,76.0,69.0,30.21,SW,226,0.0,0.0,78,0.00,,,0.15,,2013-09-11 01:02:00,
2013-09-10 21:11:00,76.0,69.0,30.21,SW,226,0.0,0.0,78,0.00,,,0.15,,2013-09-11 01:11:00,
2013-09-10 21:21:00,76.0,69.0,30.21,SW,226,0.0,0.0,78,0.00,,,0.15,,2013-09-11 01:21:00,
2013-09-10 21:53:00,76.0,69.0,30.22,SW,234,0.0,2.0,78,0.00,,,0.15,,2013-09-11 01:53:00,
2013-09-10 22:22:00,75.0,68.0,30.24,SW,234,0.0,0.0,79,0.00,,,0.15,,2013-09-11 02:22:00,
2013-09-10 22:32:00,75.0,68.0,30.24,SW,234,0.0,0.0,79,0.00,,,0.15,,2013-09-11 02:32:00,
2013-09-10 22:52:00,75.0,68.0,30.24,SW,234,0.0,0.0,79,0.00,,,0.15,,2013-09-11 02:52:00,
2013-09-10 23:23:00,75.0,68.0,30.24,South,176,0.0,0.0,80,0.00,,,0.15,,2013-09-11 03:23:00,
2013-09-10 23:55:00,74.0,68.0,30.24,ENE,66,0.0,3.0,81,0.00,,,0.15,,2013-09-11 03:55:00,